Theta_e
336 337 337 331 333 336 330 328 328 328 332 335 334 331 331 331 329 328 326 333 336 339 335 334 333 331 330 330 330 331 333 334 338 344 350 351 351 351 350 349 350 350 350
334 334 333 331 330 333 333 331 328 333 333 332 330 332 331 329 328 327 327 327 330 333 338 337 334 333 331 331 332 332 334 336 334 340 345 350 351 351 351 350 350 350 349
330 332 330 330 330 332 330 330 331 331 329 330 327 329 329 329 327 325 324 326 327 330 336 340 336 334 333 333 332 331 335 334 334 338 341 347 349 350 351 351 350 350 349
327 326 324 324 324 327 327 325 325 324 324 324 322 324 325 327 327 324 325 325 327 327 326 337 337 337 334 333 331 331 332 334 333 337 338 342 347 347 349 351 351 351 349
322 319 318 320 319 318 320 322 321 321 320 320 321 322 323 324 323 326 323 322 324 324 318 330 329 336 336 329 330 331 331 333 335 336 336 340 344 345 345 346 349 350 350
320 316 315 316 315 315 316 317 315 315 315 315 319 319 318 319 322 323 323 323 322 318 316 318 317 319 326 325 326 328 328 330 332 334 337 337 342 343 344 344 347 348 349
318 315 313 312 313 312 312 313 312 310 309 311 309 309 309 312 311 312 315 315 315 314 314 316 318 318 319 324 324 325 327 328 330 332 334 337 339 340 341 342 345 346 347
317 316 315 313 312 312 311 310 309 308 308 310 306 305 300 303 309 311 311 313 312 315 313 315 316 316 315 316 320 326 326 327 328 329 331 334 337 339 341 340 341 343 345
320 317 315 313 313 311 310 309 309 308 306 308 310 309 302 298 303 307 311 311 310 309 311 313 315 316 316 316 319 322 324 325 327 327 329 332 336 338 339 338 338 340 342
317 317 315 314 312 312 311 310 313 310 308 305 308 312 311 307 301 300 306 309 311 310 310 311 312 314 314 315 320 323 324 323 324 325 327 331 334 337 337 339 337 338 339
313 317 316 314 313 313 312 312 311 310 309 307 306 306 306 306 305 302 299 303 307 309 309 313 310 312 314 315 315 319 324 322 322 323 325 328 333 335 337 338 337 337 340
311 314 316 314 313 312 311 311 311 310 309 309 308 307 305 303 302 302 300 300 301 305 307 310 311 311 311 311 318 321 322 322 322 323 324 325 327 330 335 336 336 335 335
310 313 313 312 311 311 311 310 310 309 309 308 307 307 307 306 306 305 302 300 300 303 304 308 307 307 309 312 315 320 321 321 322 321 320 321 323 325 327 331 333 334 335
312 313 312 311 311 311 312 311 309 309 309 308 308 308 307 307 307 310 305 301 297 299 306 305 303 303 306 309 316 317 315 320 319 317 317 317 318 320 323 325 327 329 332
315 312 311 310 309 310 311 310 308 308 308 308 309 310 307 310 311 308 310 305 302 294 296 303 300 302 304 307 312 308 311 316 316 316 316 316 316 317 318 320 323 325 326
311 310 312 309 308 309 310 309 308 308 307 308 310 307 309 311 309 309 309 308 309 304 299 306 304 305 302 306 308 305 307 309 312 314 314 314 314 315 316 317 318 321 323
311 311 311 308 309 309 308 307 307 308 306 305 307 310 309 310 310 311 310 308 306 305 301 303 305 305 304 303 303 304 305 304 306 312 312 312 312 312 313 314 316 318 320
311 311 312 310 311 309 307 307 307 306 305 304 306 306 307 308 307 308 307 305 304 303 301 296 302 302 303 303 302 301 302 303 303 309 309 310 309 310 311 312 313 315 316
310 308 310 310 310 306 306 307 307 306 305 306 306 305 304 304 305 304 306 303 305 305 302 298 300 303 303 304 303 303 301 301 302 306 306 306 307 308 309 310 311 312 312
310 308 311 311 308 305 305 306 308 305 304 307 306 307 307 306 303 306 308 308 307 304 302 302 302 302 302 303 302 300 298 299 298 301 303 304 305 306 308 309 311 314 312
311 310 310 309 306 305 305 303 305 304 303 304 306 306 308 309 310 308 304 304 302 301 303 301 299 300 299 300 299 302 300 299 298 298 299 300 300 302 304 305 309 314 313
310 310 309 307 305 306 304 304 305 304 304 303 303 302 302 305 307 309 308 308 306 302 301 296 300 298 299 299 298 297 296 296 294 299 297 297 300 298 301 303 306 308 309
309 309 308 307 304 303 302 302 305 305 303 303 302 301 302 305 305 303 306 305 304 306 307 303 300 299 298 299 298 297 296 295 294 297 297 295 298 297 300 302 303 304 305
309 307 307 306 305 304 302 301 302 305 303 303 303 304 302 302 302 302 304 300 299 298 299 302 298 300 302 301 300 299 298 296 298 298 298 293 297 296 298 299 303 302 302
309 307 308 306 305 305 300 301 303 308 308 306 304 304 303 301 301 301 303 301 298 298 302 302 301 300 300 300 301 301 300 300 292 293 296 295 296 296 297 297 299 301 301
310 310 309 307 308 306 300 301 301 306 304 307 304 303 303 302 300 300 301 301 298 298 297 297 296 297 299 300 302 298 297 296 295 293 295 295 294 296 293 297 298 299 300
Wind_Speed
5 4 4 3 3 5 3 3 4 3 3 5 4 4 5 3 5 4 3 14 16 9 8 9 9 7 5 4 4 5 8 10 10 8 9 11 11 11 11 10 10 10 10
4 5 7 5 6 3 5 5 4 4 3 4 3 5 2 4 4 4 3 4 9 20 20 13 9 7 6 6 6 5 7 9 12 11 9 11 13 13 13 12 12 11 11
5 6 8 7 5 5 1 3 1 3 3 2 3 5 6 7 4 6 5 5 4 17 22 18 11 10 10 10 9 7 7 9 12 12 12 11 14 14 14 14 14 13 13
10 8 8 7 9 5 3 3 3 3 1 3 4 4 4 3 8 4 3 5 6 7 6 6 10 12 12 11 9 9 4 8 9 11 13 13 14 15 15 15 15 14 13
11 8 5 5 7 5 6 4 2 2 2 3 4 5 4 5 6 5 6 5 6 7 1 4 6 7 7 1 3 3 2 7 10 12 14 15 15 17 16 16 16 15 15
7 6 6 6 6 6 7 6 5 4 2 3 4 5 5 4 3 4 7 7 6 3 3 3 3 2 2 4 3 7 3 6 10 14 14 15 15 17 17 16 16 16 16
7 7 5 5 5 5 5 6 3 4 4 5 4 5 5 4 4 5 3 3 1 2 4 4 3 2 2 2 3 5 5 7 9 14 15 16 16 18 18 17 15 15 15
8 6 5 6 6 5 6 6 5 3 3 4 2 1 4 5 5 5 2 2 2 2 3 4 3 1 2 2 6 9 8 7 9 14 16 17 18 17 20 18 17 15 14
7 6 6 6 6 5 5 5 5 6 3 4 5 1 3 2 3 3 5 4 4 2 2 2 2 3 4 4 5 7 6 6 11 13 18 20 17 18 20 19 18 16 15
8 7 6 7 6 4 6 5 5 3 3 4 4 3 1 3 1 4 4 3 4 3 5 4 4 4 4 3 7 8 8 4 9 13 17 21 16 20 21 20 19 17 15
6 10 8 7 6 5 5 6 6 5 2 1 1 2 2 2 1 2 3 4 4 4 4 4 4 4 5 5 5 7 12 8 10 12 12 15 13 17 21 21 19 18 16
5 6 8 6 6 6 6 5 5 6 5 4 2 2 1 2 2 1 1 2 3 3 1 3 5 4 5 5 8 12 12 11 8 6 5 8 8 8 17 19 20 18 20
4 7 6 6 5 6 6 6 5 5 5 4 5 4 2 3 3 3 3 3 1 3 2 4 4 4 4 6 6 13 9 10 4 3 4 5 7 6 6 9 16 17 16
4 6 6 6 7 7 7 7 4 4 5 5 6 5 4 3 2 3 3 3 2 2 2 2 2 4 4 5 8 14 9 17 9 7 8 6 5 4 2 9 5 7 9
4 6 6 7 7 8 7 7 5 6 6 6 7 7 3 1 3 1 1 3 4 1 2 3 3 5 4 4 7 5 7 15 13 12 9 9 7 5 7 7 10 10 10
6 7 6 7 7 7 9 7 5 6 6 6 6 6 7 4 4 3 1 2 3 3 2 1 3 3 4 4 8 6 7 11 15 12 13 12 10 7 8 12 12 13 12
6 7 6 7 6 9 8 6 7 6 7 7 9 8 9 7 5 4 3 2 2 2 4 2 2 3 4 4 5 5 6 6 6 15 12 12 12 11 9 11 14 14 15
5 6 6 7 6 9 9 8 8 6 7 8 9 9 10 7 8 5 4 5 3 3 4 3 2 3 4 2 3 6 5 5 6 13 13 12 12 12 11 9 11 15 15
6 6 6 6 7 7 9 9 6 6 6 7 7 7 9 9 9 5 4 4 4 4 5 4 1 1 1 1 2 2 4 4 4 12 14 14 13 13 12 9 9 15 17
5 6 5 5 6 6 8 9 7 6 6 5 6 7 10 9 7 8 6 6 3 4 3 4 2 1 1 1 1 1 2 2 5 5 9 14 14 14 15 13 8 8 13
5 5 6 6 6 6 6 7 7 6 7 7 6 6 6 10 16 14 5 6 5 3 3 3 2 1 2 1 1 2 2 2 3 5 4 8 6 6 9 12 9 2 12
5 5 5 5 6 3 8 12 8 5 6 6 5 6 6 9 8 10 12 13 9 3 3 2 1 1 2 2 2 2 2 1 2 3 5 8 7 8 9 11 19 15 12
4 5 3 4 4 5 8 9 11 3 4 4 4 4 4 3 7 6 8 10 10 10 5 1 2 1 1 1 1 3 3 2 1 2 2 5 8 9 8 12 25 22 18
2 2 3 2 2 2 7 8 9 4 2 2 4 4 4 5 6 6 5 6 6 5 6 2 3 3 2 1 2 1 0 2 2 1 2 4 5 7 8 8 27 26 24
2 1 1 1 1 1 5 8 6 4 4 4 1 3 3 5 6 6 4 4 5 5 5 9 5 2 4 5 2 1 2 1 2 2 1 3 2 3 8 9 10 23 25
2 2 2 3 3 3 2 6 7 3 5 4 2 3 2 3 3 3 1 3 3 3 1 2 3 5 6 5 6 5 2 2 1 2 3 2 2 1 4 6 8 8 9
Wind_Direction
295 316 3 19 19 73 64 274 311 309 249 352 328 3 14 328 109 65 47 42 4 280 199 206 201 204 217 223 239 281 292 290 287 290 244 210 203 200 194 192 182 181 181
349 26 23 17 351 344 183 202 225 250 73 272 145 76 9 293 330 256 61 322 9 303 295 261 229 219 226 241 230 236 276 277 280 277 279 228 208 205 204 203 196 187 184
9 39 27 16 1 7 53 289 308 107 91 137 210 195 217 217 217 237 204 231 227 258 271 256 241 236 233 241 247 279 293 276 275 273 270 266 217 206 206 205 206 200 187
28 32 34 22 3 355 35 25 9 357 318 232 274 273 261 225 243 233 214 219 221 235 255 256 259 244 238 254 275 286 291 289 277 276 269 265 238 210 205 206 207 203 199
34 35 20 13 7 4 357 341 8 352 295 291 252 233 241 225 228 223 225 225 235 242 156 115 72 15 215 273 309 1 336 317 322 282 269 262 253 215 206 205 206 205 201
46 33 18 13 9 12 14 9 13 349 339 344 343 349 308 278 245 207 225 228 214 201 119 80 74 65 59 319 281 300 331 316 302 297 289 260 252 233 209 204 205 205 202
45 40 16 13 16 17 1 3 344 357 350 358 21 333 319 23 57 42 52 105 179 71 106 115 86 84 47 312 289 289 309 324 323 302 298 270 249 236 219 203 199 200 204
48 34 20 1 6 7 357 358 16 347 335 0 353 315 352 335 355 347 330 76 54 40 20 40 81 209 253 290 270 289 310 330 328 314 305 300 242 234 225 206 194 191 195
51 31 13 9 2 4 344 335 350 6 336 332 20 300 356 324 339 326 358 338 311 340 333 338 322 319 258 259 314 294 289 305 304 314 311 306 260 226 227 211 195 187 186
23 17 10 12 10 359 350 332 341 324 3 335 342 13 334 193 222 328 327 349 328 333 343 323 319 339 340 352 333 323 300 277 303 313 312 313 274 225 221 212 193 189 187
12 12 6 359 359 354 343 348 344 349 338 317 287 317 319 307 191 180 275 316 346 341 346 66 54 40 22 18 344 325 317 304 303 310 314 328 300 232 220 213 197 191 187
354 357 357 356 350 351 345 337 334 347 359 353 325 317 211 209 243 214 274 280 250 293 353 45 56 40 23 6 347 322 311 309 285 286 329 354 351 351 233 213 203 197 201
354 355 357 356 356 349 347 347 350 355 348 342 322 300 265 243 205 193 172 244 221 275 113 46 30 26 14 11 4 22 8 315 312 43 18 15 11 348 351 233 214 209 215
353 355 356 4 356 352 348 349 344 335 338 335 324 307 275 267 239 195 183 149 328 293 101 118 10 18 10 346 11 10 12 44 54 24 3 356 348 339 271 263 253 233 223
358 358 12 354 357 354 349 348 347 346 349 342 342 330 309 311 333 327 158 168 163 238 344 24 8 32 355 352 348 3 360 22 37 37 26 4 336 319 284 261 252 236 247
353 12 15 5 358 358 353 350 350 348 6 7 5 2 10 11 6 352 280 226 168 186 129 20 43 10 358 1 353 9 7 19 6 24 24 23 3 338 293 261 250 248 230
5 7 16 4 9 360 351 354 358 10 12 11 6 17 14 358 351 359 23 43 29 150 127 80 60 15 14 9 5 2 12 6 351 21 19 21 14 358 333 270 251 243 236
3 20 14 15 6 12 354 355 6 17 15 14 14 20 14 4 9 8 34 24 25 52 103 105 53 8 37 6 22 25 10 11 352 14 15 14 16 6 347 322 258 243 237
351 20 49 11 30 14 3 352 11 11 11 11 14 21 16 11 9 357 7 25 46 62 72 109 116 44 338 343 357 10 4 351 3 10 18 10 10 7 0 331 296 234 223
355 356 23 31 51 22 8 357 350 360 4 11 6 20 40 32 14 4 9 25 77 93 97 94 92 54 325 328 64 12 349 347 11 356 6 11 8 359 2 357 328 247 205
356 359 5 31 46 43 10 351 348 4 9 17 16 23 18 39 51 48 32 14 34 62 76 85 75 65 3 352 284 284 245 256 354 4 344 9 358 355 5 6 358 291 185
354 16 34 48 38 54 355 358 1 345 14 25 21 11 14 26 16 30 48 47 48 55 69 88 62 66 342 330 343 335 334 354 328 349 340 14 359 11 14 19 27 57 103
353 360 47 69 46 16 2 4 356 329 22 15 20 19 5 9 15 7 15 37 31 31 47 64 104 113 214 278 336 1 31 44 151 286 337 13 1 22 14 28 37 50 66
305 9 53 97 90 357 349 353 351 318 347 15 356 328 338 359 4 11 13 30 19 11 350 32 131 176 184 221 112 202 22 323 288 321 107 40 347 17 14 23 38 45 56
304 248 143 73 157 289 339 343 2 2 296 293 75 360 22 14 350 20 32 23 20 5 5 10 6 157 205 211 184 322 342 330 325 309 144 140 291 359 24 19 20 40 51
256 263 262 191 234 259 291 347 360 1 8 353 229 268 322 38 3 21 356 266 299 267 285 327 328 314 286 264 246 240 250 267 230 267 235 126 195 175 41 14 16 24 35